sat.trackr.live / text

‹ back to catalog

STARLINK-36842

NORAD 67884 · 2026-035F

PAYLOAD ACTIVE UNKNOWN

§ Identity

Operator
Country
US
Launch date
2026-02-21
Launch site
AFWTR
Launch vehicle
Mass (kg)
RCS (m²)

Purposes: comms

External: N2YO · Heavens-Above · Gunter

§ Orbital elements

Epoch: 2026-09-19T00:45:30.969216Z

Period
93.90 min
Inclination
97.2859°
Eccentricity
0.0002201
Mean motion
15.33476875 rev/d
Perigee alt
463.9 km
Apogee alt
467.0 km
Semi-major
6,843.6 km
B*
7.8445e-4
RAAN
193.8341°
Arg perigee
108.5061°
Mean anomaly
251.6421°
Rev number
3,361

§ Raw data

STARLINK-368421 67884U 26035F   26262.03160844  .00025361  00000+0  78445-3 0  99902 67884  97.2859 193.8341 0002201 108.5061 251.6421 15.33476875 33613

JSON: /api/v1/satellites/67884 · /tle

For live sub-satellite position, see the globe view (requires WebGL).

§ Visibility from observer

Set your observer location to see the next 7 days of passes ≥ 10°. The values pass through the URL so the page stays shareable.

No JS? Fill the form by hand. The geolocation button needs JavaScript.